Theta_e
307 307 307 307 307 307 307 306 306 306 306 306 306 307 308 308 306 304 299 302 299 295 297 299 299 296 294 292 287 291 289 290 289 285 285 285 283 287 286 289 287 286 286 286 287 285 283 298 298 294 298 303 306 306
307 307 307 307 307 307 307 306 306 307 307 306 306 306 307 308 306 306 297 303 309 299 297 303 303 303 301 300 295 293 289 291 294 288 287 289 287 287 287 282 291 285 290 287 286 286 298 298 298 303 304 302 304 304
307 307 307 306 306 306 306 306 306 307 307 306 305 306 307 307 307 305 301 300 301 298 297 297 299 304 306 305 302 291 294 297 295 297 291 291 286 290 285 286 289 293 296 292 292 294 297 299 301 302 302 302 306 305
306 306 306 305 305 305 305 306 306 305 304 306 307 307 307 307 307 306 299 300 301 299 291 295 308 304 308 305 301 299 297 298 297 295 292 291 289 296 287 290 289 293 294 289 293 295 297 298 299 301 301 304 305 306
304 304 304 304 304 305 305 305 305 305 306 306 306 307 307 306 306 304 303 302 303 299 292 294 300 304 306 304 302 302 299 296 294 292 292 291 295 294 293 292 291 295 291 289 288 294 295 296 300 302 302 302 304 303
302 302 302 303 303 303 304 304 303 305 306 306 306 307 306 306 306 301 298 306 305 305 296 289 300 302 304 304 302 300 299 297 296 292 293 296 299 294 288 289 295 296 299 298 295 299 298 300 303 304 303 303 304 304
300 300 301 301 301 302 302 302 303 304 305 306 306 306 306 306 304 300 299 304 307 307 296 291 292 303 306 305 303 301 302 298 297 297 294 295 298 296 290 286 293 295 298 299 300 300 298 300 299 303 304 305 306 305
299 299 300 300 301 301 302 302 303 303 304 305 305 306 306 305 304 301 307 307 308 301 299 290 290 295 305 298 298 304 299 300 299 296 297 295 295 294 287 292 296 297 297 299 299 301 301 303 303 301 304 304 303 303
298 299 299 300 300 301 302 303 303 304 304 304 305 305 304 303 302 304 306 306 307 302 293 293 289 287 305 301 301 299 299 293 299 294 295 295 292 287 293 296 297 297 296 299 300 299 299 299 300 301 303 303 303 304
298 298 299 299 300 301 302 302 303 303 304 304 304 302 299 302 307 307 302 298 298 298 297 291 296 291 299 299 296 294 297 294 289 294 299 291 290 298 300 301 299 300 300 302 298 295 297 299 300 302 303 304 304 305
297 297 298 299 299 300 301 302 303 304 305 302 299 297 301 307 302 301 295 292 294 291 295 295 295 292 302 295 292 295 290 292 288 292 293 292 289 297 299 299 302 302 301 300 300 299 301 301 301 302 303 304 305 306
297 297 298 298 299 300 301 303 303 301 299 298 297 299 299 298 296 292 290 295 294 292 297 296 297 298 300 300 294 293 290 292 287 296 291 286 294 300 299 299 301 302 300 303 303 302 302 303 304 303 305 305 304 306
296 297 298 298 299 300 302 303 302 302 301 301 296 293 292 293 287 287 285 292 293 299 301 300 296 299 299 299 293 291 287 286 295 286 286 292 297 299 300 300 300 303 301 302 304 303 304 303 304 303 304 306 308 309
296 297 297 298 299 302 301 302 301 300 298 295 294 287 289 288 291 292 293 296 301 300 299 299 298 297 298 294 294 287 291 292 285 283 283 293 297 299 301 301 300 301 301 302 303 302 302 303 302 303 304 305 305 306
296 297 298 300 299 299 299 299 300 300 296 293 295 287 291 295 297 299 301 301 302 302 299 297 298 298 295 293 294 292 288 283 284 283 290 296 300 301 301 301 300 299 301 302 302 301 301 300 299 300 302 303 304 305
296 297 297 298 298 298 298 300 300 300 297 293 292 291 295 294 294 296 298 300 303 302 302 299 295 293 292 292 289 287 284 282 285 292 297 299 300 301 301 301 303 302 302 300 301 302 301 301 300 299 301 301 303 303
295 294 299 298 298 298 298 297 297 294 293 291 291 296 295 294 293 295 298 299 306 301 295 297 292 291 295 290 288 289 285 288 295 298 300 300 300 301 302 302 304 303 303 301 302 302 302 302 302 300 298 299 299 301
293 296 298 298 298 296 297 298 294 292 289 292 289 292 294 295 295 296 299 302 303 299 299 295 298 292 289 287 288 293 296 300 301 300 300 301 303 303 303 303 303 302 304 303 304 302 302 300 299 298 298 299 298 297
295 296 297 298 298 292 290 294 295 288 291 293 295 296 296 297 300 301 301 302 304 307 301 299 294 291 291 296 296 298 300 299 299 301 303 304 305 303 304 302 303 302 302 301 302 301 301 301 300 299 298 298 295 295
297 297 297 298 297 291 288 290 299 293 289 293 295 293 294 295 298 299 299 301 302 301 297 295 294 297 297 299 302 300 301 302 301 297 298 300 304 304 303 302 300 301 302 303 301 299 301 300 300 301 298 296 296 294
295 297 297 297 295 293 291 289 290 292 293 292 294 294 293 296 296 296 296 299 298 298 296 298 299 301 303 303 303 304 303 303 301 301 300 299 302 302 301 303 303 300 301 300 300 299 300 300 301 300 299 297 297 298
293 297 294 295 289 289 290 292 289 292 289 290 289 290 289 289 290 292 296 293 293 296 300 301 302 302 302 302 303 304 304 305 303 300 299 300 301 300 300 300 300 300 301 301 301 300 299 298 299 300 299 298 296 296
296 295 292 291 286 286 285 292 286 288 285 288 290 288 288 290 292 296 293 296 296 299 300 301 303 304 303 305 305 305 305 305 302 301 301 301 301 302 300 300 301 300 300 301 302 300 299 293 297 299 301 298 297 296
296 289 286 285 285 281 288 286 290 288 288 285 285 284 287 289 294 291 289 292 296 300 300 302 304 302 303 303 302 302 303 303 304 303 304 302 300 300 301 300 301 301 300 301 301 301 300 299 296 298 297 297 296 294
283 282 282 280 286 284 282 283 284 284 282 285 284 285 286 290 286 286 287 292 295 297 301 302 301 301 300 301 301 302 305 303 302 301 303 304 302 301 299 299 300 302 303 300 299 299 299 298 297 296 295 294 294 293
278 282 281 282 283 282 282 281 282 283 284 284 286 289 290 288 286 284 290 293 295 296 297 300 300 299 299 300 300 302 303 305 305 302 302 304 302 300 298 296 296 298 300 299 298 299 299 298 297 294 292 292 288 292
277 279 284 287 285 284 282 284 285 283 281 281 284 286 287 283 284 287 291 295 294 297 299 300 301 300 299 301 302 303 305 307 305 304 305 305 304 303 301 298 296 297 300 300 299 298 297 297 296 296 293 293 292 291
282 283 279 282 283 284 281 281 281 281 283 288 288 284 281 282 284 292 293 297 296 297 299 300 302 302 303 302 303 304 305 306 307 305 303 303 303 301 301 300 298 290 298 299 299 298 298 297 296 295 294 292 291 291
282 284 284 281 282 282 283 282 282 285 288 287 284 284 286 291 294 295 295 297 298 295 295 297 298 301 301 303 301 301 302 303 301 299 297 296 296 296 298 298 297 297 296 293 287 292 296 295 296 295 294 292 291 290
282 286 282 282 281 280 284 287 286 289 290 290 290 290 290 292 290 289 289 292 293 293 295 298 299 299 297 297 299 297 298 297 298 297 295 295 297 299 298 298 298 297 296 294 293 291 284 292 290 293 291 290 288 286
286 285 283 284 282 285 288 290 291 291 290 289 290 289 288 289 288 288 287 288 288 290 289 290 293 294 294 293 293 294 292 292 292 292 293 300 301 300 300 300 301 300 299 297 295 294 293 294 293 290 289 287 287 285
286 286 284 283 284 289 290 288 288 288 288 288 288 290 290 289 283 285 287 287 285 284 285 287 287 287 292 292 291 290 288 289 288 288 288 293 299 300 300 299 300 299 298 296 296 295 294 292 289 289 287 286 286 285
286 287 286 287 285 285 287 288 286 286 287 287 287 286 285 283 279 284 288 288 287 286 286 286 287 289 290 290 290 290 289 289 287 285 286 285 285 287 292 296 296 296 296 295 295 294 293 292 289 289 287 286 285 284
Wind_Speed
16 17 18 17 18 17 18 20 19 18 18 18 19 18 18 15 12 7 7 8 4 4 11 14 18 11 4 2 2 5 8 4 4 6 4 4 3 4 5 3 5 2 4 4 4 1 3 13 17 7 8 14 7 14
17 17 16 16 17 17 17 18 18 18 19 18 20 19 19 17 13 9 4 5 1 5 7 14 19 23 19 14 4 2 5 6 3 3 3 4 3 2 5 3 5 2 2 3 1 3 4 11 14 12 10 14 14 15
18 18 16 16 16 17 18 18 19 19 19 19 20 19 19 18 14 9 5 7 4 4 8 3 10 13 11 8 8 4 3 4 2 2 3 3 4 2 2 3 4 9 6 3 1 3 4 2 7 14 17 18 12 12
15 16 15 16 16 17 18 18 19 19 21 20 19 19 19 18 16 13 6 5 5 3 4 6 0 3 7 9 10 5 4 5 5 4 3 3 4 4 1 2 1 3 5 10 4 6 11 8 14 10 15 13 16 12
14 15 16 16 17 17 19 18 19 19 19 21 22 20 20 19 17 11 7 8 8 3 4 7 16 11 13 11 10 8 4 3 3 3 3 3 4 3 2 2 4 4 2 3 4 9 7 14 16 16 11 11 15 14
15 15 17 18 18 17 19 19 21 21 20 22 23 24 22 19 15 5 3 5 8 5 3 5 6 3 10 12 11 10 8 4 2 3 4 4 3 1 3 2 0 3 2 5 5 10 10 14 11 15 12 12 13 12
17 18 18 19 19 18 19 20 22 22 22 23 22 21 19 15 6 5 3 1 1 4 2 5 5 4 16 11 7 6 6 3 3 3 3 3 3 2 2 1 5 0 6 6 8 10 6 8 10 10 10 13 15 12
17 19 19 19 19 19 20 21 21 23 25 26 24 21 17 17 8 5 2 5 5 2 3 3 5 5 7 4 3 5 4 4 4 4 2 3 2 1 2 1 7 7 3 4 7 7 9 9 10 7 10 11 14 10
17 18 19 19 20 20 20 21 22 23 26 28 27 24 3 3 3 1 1 3 2 2 3 3 3 4 3 4 3 3 3 3 4 4 3 2 1 2 5 6 6 5 5 7 8 8 10 9 10 9 9 10 11 12
17 18 19 19 19 19 20 22 21 24 28 31 7 3 2 1 4 4 1 2 1 2 2 6 6 6 2 3 3 1 2 3 2 5 2 3 3 3 6 6 3 6 4 3 4 9 8 10 10 11 10 10 9 11
17 18 19 20 20 20 21 22 20 19 14 5 6 4 6 3 3 4 4 4 4 4 6 5 10 7 1 4 2 2 1 4 3 2 3 2 2 4 1 5 6 4 1 1 4 4 5 7 9 10 12 10 9 11
18 20 20 20 20 19 19 13 15 7 5 7 8 7 4 3 3 4 4 4 6 6 8 4 6 7 1 3 3 1 0 3 4 3 2 1 2 2 5 2 2 3 6 6 6 5 8 8 9 11 11 7 7 10
19 20 21 21 20 19 17 11 14 15 15 2 2 3 3 3 4 7 6 5 5 4 5 5 3 4 3 3 1 1 2 4 3 3 2 2 3 1 2 3 6 6 6 6 6 8 9 8 9 11 11 11 11 11
19 21 21 20 20 11 13 13 15 11 5 4 4 5 6 6 7 7 8 7 4 5 3 3 3 4 3 4 3 3 5 1 3 2 3 3 5 12 4 4 4 5 8 5 5 7 8 6 6 9 12 11 11 13
20 23 22 5 12 15 17 17 16 4 3 5 5 6 8 8 9 9 8 8 7 3 4 0 2 5 4 4 4 2 3 2 5 5 4 3 4 5 5 5 4 5 5 5 4 6 6 9 10 11 11 10 11 12
21 21 2 9 15 21 21 14 6 4 4 6 8 6 6 8 8 9 8 4 7 4 3 3 0 3 4 4 4 5 4 6 5 4 4 0 5 6 1 4 0 5 6 2 6 6 6 6 7 7 9 11 12 10
19 3 15 20 22 23 19 5 2 5 5 6 6 7 11 12 11 11 10 7 3 2 4 3 3 5 3 2 3 5 6 5 5 4 3 7 8 10 7 5 3 3 6 3 7 5 5 4 5 8 9 8 9 11
10 10 19 22 18 13 3 7 4 6 9 8 7 8 9 10 11 11 10 8 3 3 3 5 4 4 2 3 3 4 4 4 3 5 2 6 7 7 5 6 3 1 7 8 7 5 5 5 6 6 7 8 11 11
12 12 21 24 14 2 4 4 5 6 8 7 10 10 11 10 10 11 9 8 5 3 1 2 0 3 5 5 1 3 1 4 4 4 2 2 4 5 5 3 3 2 7 7 4 4 3 4 6 5 4 5 7 7
20 20 19 21 8 4 5 6 5 6 5 5 8 9 8 8 9 9 9 7 4 3 4 5 6 5 4 2 4 6 6 5 4 3 2 2 2 3 3 4 3 4 7 8 6 6 3 3 5 6 5 5 5 6
16 2 10 10 2 6 5 5 6 6 7 8 9 9 9 8 9 8 7 7 7 7 4 4 4 5 7 5 3 3 5 7 5 7 4 3 3 4 4 6 3 4 6 6 7 4 5 3 3 5 5 6 5 6
7 15 8 7 5 5 6 7 6 5 6 7 8 7 6 6 9 11 9 9 6 7 6 9 9 7 6 6 5 6 3 5 9 7 9 7 5 4 4 4 4 7 7 6 6 5 4 2 3 5 5 6 6 5
14 9 4 5 6 6 7 6 7 6 6 4 7 9 7 8 8 8 8 8 9 9 8 7 12 14 9 5 1 1 7 7 7 8 9 7 4 5 5 5 8 9 8 5 4 5 4 1 5 5 6 6 5 6
3 2 5 6 9 6 5 9 6 7 9 12 13 17 17 11 10 8 11 8 8 7 6 6 3 3 4 7 4 4 5 5 7 8 5 5 3 2 3 8 8 8 5 6 5 5 4 5 6 6 7 6 7 7
4 6 4 7 5 6 6 11 14 12 16 15 17 14 10 7 10 13 14 9 8 7 4 4 4 3 3 1 4 2 2 6 9 8 4 4 3 5 4 7 8 9 6 7 6 6 6 5 5 8 8 5 7 7
6 6 6 6 7 9 9 15 10 8 7 7 4 6 6 7 10 8 4 9 10 9 11 12 3 5 8 4 1 2 2 3 7 9 6 4 1 3 4 9 8 5 4 5 5 9 7 8 9 11 9 8 7 6
7 8 6 7 9 11 11 11 11 9 12 12 9 12 4 7 8 6 5 6 6 10 9 14 9 4 5 8 3 3 4 4 4 5 6 8 2 7 9 9 8 5 7 7 6 6 6 9 8 10 10 7 6 6
9 7 14 11 12 9 13 12 15 16 10 4 5 2 1 2 2 2 4 7 9 13 11 10 10 6 11 11 10 10 5 5 8 6 5 4 5 4 10 8 8 12 8 6 8 6 6 7 9 10 10 8 6 7
8 6 10 16 15 12 13 13 13 10 9 9 10 7 5 2 5 5 2 4 2 5 10 8 6 9 10 9 9 10 9 8 7 4 14 8 10 5 9 10 9 8 7 7 8 7 8 6 9 12 12 9 7 6
10 8 7 9 11 8 11 9 11 11 10 9 8 8 5 4 8 10 10 10 10 10 11 11 10 10 10 9 7 8 10 10 9 8 6 2 4 9 8 9 11 10 8 9 8 5 5 6 10 12 10 8 6 5
7 6 6 8 10 11 9 8 8 9 11 9 7 8 7 7 5 9 11 10 9 10 11 11 11 12 10 10 9 6 6 8 11 10 11 4 7 8 8 8 7 8 9 10 9 7 5 6 9 11 12 10 10 8
5 4 5 4 3 7 7 8 7 6 7 8 7 3 7 5 5 5 8 9 8 8 8 7 7 7 9 7 7 7 9 7 10 11 17 9 5 8 9 8 9 7 6 8 9 11 11 9 7 8 9 12 11 11
9 7 7 3 3 3 4 4 2 3 5 3 6 5 6 5 5 5 5 7 5 5 5 5 5 5 6 7 6 5 7 9 13 15 15 17 18 15 9 9 9 8 7 5 5 8 8 9 9 10 11 11 10 9
Wind_Direction
300 303 300 302 304 306 309 317 316 312 314 319 321 321 320 318 317 313 281 269 220 259 278 267 278 281 295 216 259 327 316 357 328 1 332 338 348 354 323 360 347 43 277 342 318 91 120 346 337 43 317 308 283 36
298 299 301 304 305 305 305 307 311 310 309 315 318 318 315 314 312 310 262 280 296 249 268 293 273 266 250 233 180 167 292 296 309 349 338 309 312 319 290 359 329 15 338 305 65 290 351 23 359 328 303 319 16 22
304 308 309 309 308 308 306 306 306 304 305 309 313 314 312 307 304 294 276 284 291 264 275 246 274 250 220 213 150 164 238 324 359 349 304 290 287 344 342 34 310 335 5 9 166 355 133 118 357 348 343 345 358 5
309 313 313 311 311 309 308 308 307 310 313 309 306 309 312 310 308 303 268 255 233 287 273 271 68 56 146 132 166 210 326 326 294 276 249 274 275 199 352 301 197 347 335 323 301 11 336 5 354 329 317 339 3 349
316 315 314 314 309 309 310 308 310 308 307 307 310 310 313 314 309 296 255 234 231 246 291 301 299 262 155 159 179 196 214 274 299 292 228 241 256 1 137 283 42 2 13 329 301 317 317 318 325 317 342 349 353 349
316 317 315 317 314 316 314 316 314 310 307 308 308 308 311 314 316 283 258 190 214 179 294 296 318 193 151 172 181 199 198 203 240 277 265 264 254 303 343 73 151 96 263 268 285 308 296 290 314 340 346 339 330 321
315 315 315 316 317 318 315 313 310 310 311 306 303 303 302 307 300 242 344 347 308 133 242 279 280 233 176 183 203 203 192 212 225 258 243 250 256 83 34 307 276 187 243 259 285 300 315 334 315 319 322 311 295 288
321 320 319 320 320 317 315 312 312 310 308 304 302 302 296 298 290 255 234 213 180 197 239 269 275 282 155 187 237 148 192 194 222 247 264 243 329 183 236 185 307 301 241 291 253 258 270 280 295 335 336 328 318 300
322 323 320 318 319 320 318 320 319 318 311 306 302 304 262 203 226 197 345 1 14 253 275 227 252 264 65 224 196 188 203 233 213 215 225 159 230 238 256 285 263 71 34 354 5 7 341 342 337 329 327 320 320 322
324 322 323 325 322 319 320 321 323 321 311 305 297 218 121 295 145 122 88 162 173 249 247 254 216 260 25 62 260 190 210 242 260 227 216 190 209 306 248 224 93 64 50 50 15 6 358 340 342 337 324 319 310 309
325 322 323 325 326 325 322 316 317 317 306 332 347 9 329 325 247 212 219 196 166 220 215 234 214 226 237 167 205 90 314 286 267 248 186 223 165 205 32 47 118 121 253 338 27 13 347 355 356 341 323 310 308 311
324 323 325 323 322 322 325 347 350 345 331 302 291 299 271 273 240 257 221 220 197 234 177 211 209 192 83 82 80 10 222 330 273 333 279 98 126 108 104 358 83 104 57 49 359 18 1 43 5 338 324 295 305 308
324 323 323 323 318 318 318 323 333 315 310 213 189 234 218 221 233 224 225 213 211 206 178 190 112 118 86 74 78 140 185 239 324 5 274 44 107 249 244 63 23 77 50 40 19 24 27 41 13 4 352 2 2 14
325 323 323 318 311 324 336 323 320 319 284 256 228 242 211 208 225 211 249 268 352 299 121 129 128 124 156 171 151 197 227 65 330 273 246 155 171 216 192 99 60 50 55 22 35 40 19 51 27 20 13 7 7 25
324 323 320 337 348 334 323 313 306 287 274 270 234 238 228 229 275 276 262 272 284 153 130 127 121 139 144 187 189 202 232 226 194 230 232 240 156 107 132 144 112 70 67 18 48 53 30 55 37 28 26 8 15 22
326 313 16 354 345 340 327 312 278 199 244 245 237 275 293 289 282 293 314 329 352 2 13 53 119 159 186 190 169 197 161 220 238 209 227 175 78 348 328 93 52 116 114 48 84 73 41 47 50 31 29 32 33 18
316 221 351 352 336 325 307 283 245 236 239 239 247 254 263 274 277 278 281 279 221 249 199 116 289 211 205 173 196 152 199 217 223 250 175 154 141 218 233 137 292 148 142 152 115 112 92 81 72 45 31 37 32 27
288 310 332 320 325 315 266 191 242 251 243 232 250 254 262 266 268 267 271 277 278 218 247 176 196 200 198 238 213 215 201 190 234 259 190 192 199 192 177 163 230 349 110 68 20 89 92 65 74 52 33 40 32 15
305 306 303 302 316 303 282 231 228 255 245 248 244 249 253 259 264 264 265 269 254 262 269 154 110 236 220 213 211 1 144 187 186 219 234 47 170 176 149 170 211 204 135 125 127 89 84 59 96 86 52 47 62 27
295 287 285 283 265 264 265 252 228 247 259 259 293 282 275 277 283 283 284 277 241 214 237 224 219 221 236 240 167 192 202 190 149 156 181 232 118 82 265 229 210 142 126 106 88 92 100 59 74 93 89 58 73 50
299 253 333 318 245 215 273 273 256 277 261 257 266 276 267 275 279 292 301 311 288 238 245 254 247 235 235 243 247 173 158 202 157 132 187 174 180 172 246 252 93 27 121 111 115 105 81 77 58 107 92 90 62 88
275 290 286 250 243 248 238 227 253 310 311 290 299 273 263 265 279 276 279 276 272 274 213 227 244 248 241 227 239 238 241 205 132 123 125 142 179 179 212 232 143 109 102 103 119 125 105 78 20 116 115 112 102 79
265 250 213 245 239 244 258 232 248 227 244 280 322 303 296 302 289 298 283 263 249 253 255 247 228 226 229 208 165 211 179 211 162 155 152 174 210 185 175 125 125 115 113 116 108 103 102 56 59 60 93 90 82 82
147 255 237 230 204 251 257 245 242 272 279 286 284 284 287 282 282 269 272 277 286 284 285 278 111 63 34 315 243 249 199 172 146 127 139 165 129 295 135 116 114 113 123 128 130 133 136 100 101 81 62 65 80 78
271 237 214 256 257 229 245 250 256 260 267 273 276 275 272 274 285 287 291 284 283 301 339 22 8 320 233 246 302 284 171 138 144 138 159 108 266 138 132 136 125 130 134 137 147 146 129 114 97 93 82 47 83 76
240 237 219 224 234 253 264 268 293 330 328 305 313 320 343 297 262 260 29 7 346 345 3 318 333 35 291 55 59 116 68 79 114 133 142 134 35 178 160 132 126 138 129 120 128 143 144 128 124 118 117 99 67 82
228 244 228 252 275 287 286 293 297 300 288 288 295 299 321 340 15 14 325 11 330 337 337 310 340 318 341 48 24 21 117 87 128 144 130 151 173 288 161 145 147 147 121 114 100 95 105 125 120 118 112 107 104 85
224 254 253 255 255 264 278 280 288 296 283 279 339 351 1 308 262 1 37 344 349 340 332 313 317 7 54 49 29 11 39 77 101 110 108 77 48 345 86 92 91 89 80 81 104 91 99 113 117 113 112 109 100 100
242 250 264 267 268 270 271 266 268 267 273 300 290 282 273 248 1 360 329 287 112 326 302 319 334 41 49 59 45 35 36 26 4 181 162 168 144 151 123 118 113 109 100 92 73 79 86 84 116 121 116 106 100 101
262 249 247 254 254 251 247 252 267 278 280 272 279 274 252 83 41 16 6 356 7 5 345 341 24 33 53 34 50 46 29 27 40 22 323 296 100 152 149 140 136 133 129 118 112 105 69 110 107 110 105 106 107 95
265 272 258 255 274 268 271 268 267 273 278 260 272 286 274 122 93 41 20 7 359 4 6 6 24 19 33 41 17 13 30 19 36 7 344 313 3 108 96 73 66 129 142 137 144 157 156 113 106 114 118 120 113 101
242 249 272 255 245 264 255 253 248 253 277 282 266 324 325 78 57 27 6 2 4 6 4 3 8 6 9 45 58 53 49 32 30 31 13 2 69 64 75 83 92 82 54 85 82 89 91 99 95 86 92 104 105 102
270 258 258 260 254 263 229 195 236 247 241 226 66 38 43 62 77 23 0 355 340 340 340 347 341 348 30 44 46 46 50 54 48 48 42 33 35 36 29 44 52 54 65 82 84 106 121 117 119 112 104 109 115 117